Retour au catalogue

COSMOS 2251 DEB

ActifLEO
NORAD 37993·DEBRIS·🇷🇺 Russia

Lancé Jun 16, 1993 depuis Plesetsk Cosmodrome

Loading…

Prochains Passages (prochaines 24 heures)

TLE

FraisSource: Space-Track

Époque: Sep 13, 2026, 13:31 UTC

1 37993U 93036BQU 26256.56323550  .00003156  00000-0  62448-3 0  9994
2 37993  74.0252   0.7575 0021459  18.4262 341.7677 14.62633116693322

Suivez COSMOS 2251 DEB en temps réel avec AllMySat

Download on the App Store